Погода в Землянске

Россия / Воронежская область     51°53′59″N   38°43′58″E
темп.,
°C
ветер,
м/с
пор.,
м/с
влажн.,
%
обл.,
%
осадки,
мм/ч
давл.,
гПа
погр.,
м
12 мая, ср
ср1200:00+6в38935 0.0 1025175
03:00+6всв4892100 0.0 1024151
06:00+6всв41087100 0.0 1024298
09:00+11всв5769100 0.0 1023520
12:00+14всв5559100 0.0 10211196
15:00+15в455533 0.1 10191566
18:00+13вюв597174 0.4 1018333
21:00+11в388420 0.9 1018201
13 мая, чт
чт1300:00+10в41090100 0.1 1017264
03:00+9вюв3892100 0.1 1018214
06:00+10в3892100 0.0 1017234
09:00+15юв58718 0.0 1016544
12:00+19ююв585788 0.0 10151490
15:00+17зюз577111 0.9 1015830
18:00+16зсз338214 0.9 1015383
21:00+12ссв33945 0.9 101748
14 мая, пт
пт1400:00+11всв349592 0.0 101772
03:00+11всв3695100 0.0 1017132
06:00+12в38915 0.0 1016157
09:00+19юв5875100 0.0 1015466
12:00+23юв6960100 0.0 10141227
15:00+25ююв71158100 0.0 10131740
18:00+22ююв4107189 0.0 1012396
21:00+20юв4127762 0.0 1012243
15 мая, сб
сб1500:00+17ю2288100 1.2 101219
03:00+16ю229363 2.9 101222
06:00+16в3594100 1.7 1011114
09:00+18всв3386100 3.7 1010137
12:00+22ю786421 0.0 10111397
15:00+24ююз6956100 0.7 10111887
18:00+21юз610690 1.0 1012583
21:00+16зюз4983100 1.0 1013185
16 мая, вс
вс1600:00+14зюз378838 0.0 1013129
03:00+12зсз34942 0.0 101565
06:00+13ссз129189 0.0 101685
09:00+18ссз22702 0.0 1016520
12:00+21ссв225844 0.0 10161045
15:00+22св335444 0.0 10151215
18:00+21с3568100 0.0 1015201
21:00+17св4880100 0.0 1015147